User: anonymous   Login
Location: NJAA Observatory
(40.6819°N, 74.8979°W)
Time: 06:31:10
(UTC-04:00)
Language:

Meteor 2-9 Rocket - Orbit

View from above orbital plane
View from above orbital plane
View from above satellite
View from above satellite

Ground track
Ground track

The orbit data is extracted from the following two-line orbital elements,

1 13719U 82116B   15115.86732797  .00000233  00000-0  11155-3 0  9995
2 13719 081.2568 047.6890 0072892 067.4841 349.8185 14.14535405669624
Epoch (UTC): 25 April 2015 20:48:57
Eccentricity: 0.0072892
inclination: 81.2568°
perigee height: 791 km
apogee height: 896 km
right ascension of ascending node: 47.6890°
argument of perigee: 67.4841°
revolutions per day: 14.14535405
mean anomaly at epoch: 349.8185°
orbit number at epoch: 66962

The dashed part of the orbit path shows where the satellite is in the earth's shadow,  

DLR